Tracking 30074 objects as of 13-Jan-2025
HD Live streaming from Space Station
objects crossing your sky now

SKYSAT C13

Track SKYSAT C13 now!
10-day predictions


NORAD ID: 43802
Int'l Code: 2018-099AW
Perigee: 440.9 km
Apogee: 453.1 km
Inclination: 97.0 °
Period: 93.4 minutes
Semi major axis: 6817 km
RCS: Unknown
Launch date: December 3, 2018
Source: United States (US)
Launch site: AIR FORCE WESTERN TEST RANGE (AFWTR)
Your satellite tracking list
Your tracking list is empty




NASA's NSSDC Master Catalog

Two Line Element Set (TLE):
1 43802U 18099AW  25012.94560519  .00019847  00000-0  46448-3 0  9991
2 43802  97.0157  65.3237 0008904  13.2180 346.9300 15.42118544341750
Source of the keplerian elements: AFSPC